FW6239 Weather Reports


Display with metric or nautical units.
time (UTC)temp
F
wind
direction
speed
MPH
gust
MPH
rain 1hr
in
rain 24hr
in
rain mn
in
humidity
%
barometer
mb
20260507134552 52 269 4.0 9.0 0.00 0.00 0.00 75 1019.1
20260507133052 51 279 3.0 10.0 0.00 0.00 0.00 79 1019.2
20260507131550 49 257 2.0 7.0 0.00 0.00 0.00 82 1019.4
20260507130100 48 232 1.0 4.0 0.00 0.00 0.00 86 1019.4
20260507124554 46 237 1.0 4.0 0.00 0.01 0.00 89 1019.4
20260507123106 44 320 0.0 1.0 0.00 0.01 0.00 90 1019.2
20260507121558 42 0 0.0 0.0 0.00 0.01 0.00 89 1019.3
20260507120050 41 0 0.0 0.0 0.00 0.01 0.00 89 1019.2
20260507114553 40 0 0.0 0.0 0.00 0.01 0.00 87 1018.9
20260507113043 40 0 0.0 0.0 0.00 0.01 0.00 87 1019.0
20260507111551 41 0 0.0 0.0 0.00 0.01 0.00 87 1018.9
20260507110048 41 0 0.0 0.0 0.00 0.01 0.00 87 1018.9
20260507104553 41 0 0.0 0.0 0.00 0.01 0.00 86 1018.9
20260507103048 42 0 0.0 0.0 0.00 0.01 0.00 86 1018.9
20260507101558 42 0 0.0 0.0 0.00 0.01 0.00 86 1019.2
20260507100056 42 0 0.0 1.0 0.00 0.01 0.00 86 1019.2
20260507094549 42 263 0.0 1.0 0.00 0.01 0.00 86 1019.3
20260507093051 43 0 0.0 0.0 0.00 0.01 0.00 85 1019.4
20260507091547 44 0 0.0 1.0 0.00 0.01 0.00 85 1019.5
20260507090050 44 0 0.0 0.0 0.00 0.01 0.00 85 1019.4
20260507084551 45 0 0.0 0.0 0.00 0.02 0.00 85 1019.5
20260507083058 45 36 0.0 1.0 0.00 0.02 0.00 85 1019.5
20260507081557 45 0 0.0 0.0 0.00 0.02 0.00 84 1019.8
20260507080049 46 0 0.0 0.0 0.00 0.02 0.00 83 1019.7
20260507074543 46 0 0.0 0.0 0.00 0.06 0.00 82 1019.9
20260507073053 47 0 0.0 1.0 0.00 0.06 0.00 83 1019.8
20260507071546 47 0 0.0 2.0 0.00 0.06 0.00 83 1020.0
20260507070047 47 0 0.0 2.0 0.00 0.06 0.00 83 1020.3
20260507064548 46 0 0.0 2.0 0.00 0.08 0.00 83 1020.2
20260507063050 46 0 0.0 0.0 0.00 0.08 0.00 83 1020.0
20260507061545 46 0 0.0 0.0 0.00 0.08 0.00 84 1019.9
20260507060049 46 0 0.0 0.0 0.00 0.08 0.00 83 1020.1
20260507054545 46 0 0.0 0.0 0.00 0.08 0.00 84 1020.2
20260507053049 45 0 0.0 0.0 0.00 0.08 0.00 84 1020.1
20260507051549 45 0 0.0 0.0 0.00 0.08 0.00 83 1020.1
20260507050055 45 36 0.0 2.0 0.00 0.08 0.00 82 1020.0
20260507044547 46 0 0.0 0.0 0.00 0.08 0.08 80 1020.1
20260507043045 46 0 0.0 0.0 0.00 0.08 0.08 77 1019.9
20260507041547 47 0 0.0 0.0 0.00 0.08 0.08 75 1019.8
20260507040044 48 0 0.0 0.0 0.00 0.08 0.08 74 1020.2
20260507034549 49 0 0.0 0.0 0.00 0.08 0.08 73 1020.2
20260507033047 50 0 0.0 0.0 0.00 0.08 0.08 73 1020.2
20260507031550 50 0 0.0 0.0 0.00 0.08 0.08 72 1020.2
20260507030049 51 0 0.0 0.0 0.00 0.08 0.08 70 1020.1
20260507024559 51 0 0.0 1.0 0.00 0.08 0.08 70 1020.1
20260507023044 51 0 0.0 0.0 0.00 0.08 0.08 66 1019.8
20260507021549 52 0 0.0 0.0 0.00 0.08 0.08 65 1019.9
20260507020106 52 0 0.0 0.0 0.00 0.08 0.08 63 1019.3
20260507014554 54 0 0.0 1.0 0.00 0.08 0.08 60 1019.1
20260507013049 54 0 0.0 3.0 0.00 0.08 0.08 57 1019.0
20260507011542 56 0 0.0 2.0 0.00 0.08 0.08 58 1018.9
20260507010050 56 0 0.0 2.0 0.00 0.08 0.08 56 1018.8
20260507004551 56 360 2.0 4.0 0.00 0.08 0.08 54 1018.7
20260507003050 57 360 1.0 3.0 0.00 0.08 0.08 54 1018.7
20260507001546 57 360 1.0 5.0 0.00 0.08 0.08 51 1018.8
20260507000049 58 19 4.0 8.0 0.00 0.08 0.08 50 1018.7
20260506234556 58 42 2.0 7.0 0.00 0.08 0.08 49 1018.6
20260506233048 59 35 0.0 9.0 0.00 0.08 0.08 49 1018.5
20260506231553 59 61 3.0 9.0 0.00 0.08 0.08 50 1018.6
20260506230058 59 20 3.0 8.0 0.00 0.08 0.08 50 1018.5
20260506224548 59 52 3.0 8.0 0.00 0.08 0.08 49 1018.4
20260506223053 59 45 5.0 9.0 0.00 0.08 0.08 48 1018.2
20260506221548 59 53 2.0 8.0 0.00 0.08 0.08 47 1018.3
20260506220052 59 31 3.0 11.0 0.00 0.08 0.08 46 1018.4
20260506214547 60 66 5.0 14.0 0.00 0.08 0.08 47 1018.5
20260506213102 59 36 4.0 11.0 0.00 0.08 0.08 45 1018.6
20260506211604 59 38 3.0 10.0 0.00 0.08 0.08 47 1018.6
20260506210043 59 89 4.0 11.0 0.00 0.08 0.08 45 1018.8
20260506204554 59 250 3.0 11.0 0.00 0.08 0.08 44 1019.1
20260506203052 60 62 6.0 12.0 0.00 0.08 0.08 45 1019.3
20260506201600 59 45 4.0 13.0 0.00 0.08 0.08 47 1019.3
20260506200053 59 62 4.0 14.0 0.00 0.08 0.08 46 1019.7
20260506194555 58 29 7.0 14.0 0.00 0.08 0.08 46 1019.8
20260506193047 58 82 6.0 13.0 0.00 0.08 0.08 49 1019.8
20260506191549 57 38 5.0 13.0 0.00 0.08 0.08 48 1019.7
20260506190050 57 118 4.0 13.0 0.00 0.08 0.08 52 1019.8
20260506184604 57 41 4.0 15.0 0.00 0.08 0.08 49 1020.1
20260506183100 56 76 5.0 17.0 0.00 0.08 0.08 52 1020.2
20260506181549 57 19 6.0 13.0 0.00 0.08 0.08 51 1020.4
20260506180054 56 57 6.0 12.0 0.00 0.08 0.08 51 1020.8
20260506174548 56 23 6.0 14.0 0.00 0.08 0.08 56 1020.9
20260506173054 55 316 4.0 12.0 0.00 0.08 0.08 57 1020.9
20260506171552 54 43 7.0 13.0 0.00 0.08 0.08 60 1020.9
20260506170108 54 79 5.0 11.0 0.00 0.08 0.08 64 1020.9
20260506164542 53 35 4.0 11.0 0.00 0.08 0.08 70 1020.9
20260506163100 51 40 5.0 11.0 0.00 0.08 0.08 70 1021.0
20260506161550 51 31 3.0 10.0 0.00 0.08 0.08 73 1021.0
20260506160051 50 57 3.0 9.0 0.00 0.08 0.08 74 1021.1
20260506154554 49 5 3.0 8.0 0.00 0.08 0.08 77 1021.0
20260506153051 48 40 3.0 7.0 0.00 0.08 0.08 78 1020.7
20260506151546 48 350 2.0 8.0 0.00 0.08 0.08 80 1021.1
20260506150050 47 5 2.0 8.0 0.00 0.08 0.08 80 1020.9
20260506144601 47 10 2.0 8.0 0.00 0.08 0.08 84 1020.5
20260506143055 46 69 3.0 8.0 0.00 0.08 0.08 85 1020.5
20260506141550 46 17 2.0 6.0 0.00 0.08 0.08 87 1020.5
20260506140051 46 5 1.0 6.0 0.00 0.08 0.08 88 1020.3